This is the latest recevied weather packets stored in our database for station/object AA7F. If no packets are shown the sender has not sent any weather packets the latest 10 day(s).
| Time | Temp. | Humidity | Pressure | Rain* | Wind** | Luminosity | Snow |
|---|---|---|---|---|---|---|---|
| 1777736764 | 13.89° C | 67% | 1015.8 hPa | 0 mm | - | 359 W/m² | - |
| 1777736136 | 13.33° C | 68% | 1016.1 hPa | 0 mm | - | 360 W/m² | - |
| 1777735834 | 12.78° C | 68% | 1015.8 hPa | 0 mm | - | 322 W/m² | - |
| 1777735531 | 12.22° C | 71% | 1016 hPa | 0 mm | - | 295 W/m² | - |
| 1777735228 | 11.67° C | 72% | 1016.3 hPa | 0 mm | - | 157 W/m² | - |
| 1777734925 | 11.11° C | 73% | 1015.9 hPa | 0 mm | - | 159 W/m² | - |
| 1777734622 | 11.11° C | 73% | 1016.1 hPa | 0 mm | - | 121 W/m² | - |
| 1777734320 | 11.67° C | 72% | 1016 hPa | 0 mm | - | 162 W/m² | - |
| 1777734015 | 11.67° C | 72% | 1016.1 hPa | 0 mm | - | 210 W/m² | - |
| 1777733712 | 11.11° C | 73% | 1016 hPa | 0 mm | - | 212 W/m² | - |
| 1777733409 | 11.11° C | 74% | 1016.1 hPa | 0 mm | - | 205 W/m² | - |
| 1777733105 | 10.56° C | 74% | 1015.9 hPa | 0 mm | - | 167 W/m² | - |
| 1777732801 | 10.56° C | 75% | 1016 hPa | 0 mm | - | 164 W/m² | - |
| 1777732499 | 10° C | 75% | 1015.9 hPa | 0 mm | - | 166 W/m² | - |
| 1777732196 | 10° C | 76% | 1015.8 hPa | 0 mm | - | 130 W/m² | - |
| 1777731893 | 9.44° C | 77% | 1015.9 hPa | 0 mm | - | 142 W/m² | - |
| 1777731590 | 9.44° C | 77% | 1016 hPa | 0 mm | - | 102 W/m² | - |
| 1777731288 | 9.44° C | 78% | 1016 hPa | 0 mm | - | 96 W/m² | - |
| 1777730985 | 9.44° C | 78% | 1016.1 hPa | 0 mm | - | 98 W/m² | - |
| 1777730683 | 9.44° C | 78% | 1015.8 hPa | 0 mm | - | 86 W/m² | - |
| 1777730379 | 8.89° C | 78% | 1016 hPa | 0 mm | - | 81 W/m² | - |
| 1777730075 | 8.89° C | 78% | 1015.8 hPa | 0 mm | - | 78 W/m² | - |
| 1777729772 | 8.89° C | 78% | 1015.8 hPa | 0 mm | - | 75 W/m² | - |
| 1777729469 | 8.89° C | 78% | 1015.8 hPa | 0 mm | - | 70 W/m² | - |
| 1777729166 | 8.89° C | 78% | 1015.8 hPa | 0 mm | - | 62 W/m² | - |
* Rain latest hour (hover to see other rain measurements)
** Current wind speed in m/s (hover to see current wind gust speed)